[Date Prev][Date Next][Thread Prev][Thread Next] - [Date Index][Thread Index][Author Index]
2 Line ISS Keps 12-24
- Subject: [sarex] 2 Line ISS Keps 12-24
- From: "Dave Larsen PhD" <doc@xxxxxxxxxxx>
- Date: Thu, 23 Dec 2004 17:54:23 -0800
ISS
1 25544U 98067A 04359.01157407 .00021364 00000-0 16603-3 0 4299
2 25544 51.6388 76.7040 0004277 134.6982 220.7256 15.71713119348139
----
Via the sarex mailing list at AMSAT.ORG courtesy of AMSAT-NA.
To unsubscribe, send "unsubscribe sarex" to Majordomo@amsat.org
AMSAT Home